Content
SEND FEEDBACK

Daily
Averages
Monthly
Summary
United States of America

OUZINKIE - AIRPORT, ALASKA


Home > North America > United States > Alaska
Elevation: 70 feet     Latitude: 57 56N     Longitude: 152 30W

WEATHER
 
SELECT A DAY
Number of Records: 221,465;   Date Range: 1/1/95 - 8/30/14
 
SHARE

PRINT THIS DATA

[ ← Previous Day ]
WEATHER ALMANAC - JANUARY 23, 2013
[ Next Day → ]
[ °C ]   °F
Weather ElementAverageHighLow
Temperature39.8 °F41 °F (1:08 am)39 °F (5:53 pm)
Dewpoint38 °F39.2 °F (1:08 am)35.6 °F (7:10 pm)
Humidity93.3 %100 % (4:00 am)87 % (3:00 am)
Barometer29.13 in29.22 in (1:08 am)29.06 in (3:37 pm)
Wind Speed17.6 mph25.3 mph (2:36 am)
Wind Gust35.7 mph (6:28 am)
Weather ElementAverage
Visibility5.9 mi
Wind DirectionNNE (35.5 °)

Weather ElementTotal
Precipitation0.94 in
Heating Degree Days25 (Base 65)
Averaged from 47 records on January 23, 2013
WEATHER CONDITIONS BREAKOUT
WIND DIRECTION BREAKOUT
WEATHER BY HOUR - JANUARY 23, 2013
[ °C ]   °F
Local TimeTemperatureDewpointHumidityBarometerVisibilityWind DirectionWind SpeedGust SpeedPrecipitationEventsConditions
1:08 AM41.0 °F39.2 °F93 %29.22 in10.0 miNNE (30°)19.6 mph0.00 inOvercast
1:26 AM41.0 °F39.2 °F93 %29.21 in10.0 miNNE (20°)18.4 mph24.2 mph0.00 inOvercast
1:36 AM41.0 °F39.2 °F93 %29.21 in6.0 miNNE (20°)18.4 mph25.3 mph0.00 inRainLight Rain
1:43 AM41.0 °F39.2 °F93 %29.21 in6.0 miNorth (10°)16.1 mph24.2 mph0.00 inRainLight Rain
1:53 AM41.0 °F39.0 °F93 %29.21 in8.0 miNorth (10°)18.4 mph29.9 mph0.00 inOvercast
2:13 AM41.0 °F39.2 °F93 %29.21 in10.0 miNorth (10°)17.3 mph25.3 mphOvercast
2:25 AM41.0 °F39.2 °F93 %29.20 in10.0 miNorth (10°)18.4 mph25.3 mphOvercast
2:36 AM41.0 °F39.2 °F93 %29.20 in10.0 miNNE (20°)25.3 mph32.2 mphOvercast
3:00 AM41.0 °F37.4 °F87 %29.19 in8.0 miNorth (10°)21.9 mph33.4 mphOvercast
3:53 AM39.9 °F39.0 °F97 %29.17 in10.0 miNorth (10°)16.1 mph26.5 mph0.03 inRainLight Rain
4:00 AM39.2 °F39.2 °F100 %29.17 in7.0 miNorth (360°)15.0 mph25.3 mph0.00 inRainLight Rain
4:53 AM39.9 °F39.0 °F97 %29.16 in8.0 miNorth (10°)12.7 mph27.6 mph0.03 inRainLight Rain
5:29 AM39.2 °F39.2 °F100 %29.14 in10.0 miNorth (10°)18.4 mph31.1 mph0.01 inRainLight Rain
5:53 AM39.9 °F39.0 °F97 %29.14 in4.0 miNorth (10°)18.4 mph26.5 mph0.02 inRainLight Rain
6:03 AM41.0 °F39.2 °F93 %29.13 in7.0 miNNE (20°)24.2 mph34.5 mph0.01 inRainLight Rain
6:28 AM41.0 °F37.4 °F87 %29.13 in10.0 miNorth (10°)17.3 mph35.7 mph0.01 inOvercast
6:53 AM39.9 °F37.9 °F93 %29.13 in3.0 miNorth (360°)13.8 mph29.9 mph0.01 inOvercast
7:05 AM39.2 °F37.4 °F93 %29.12 in5.0 miNNE (20°)17.3 mph24.2 mph0.01 inRainLight Rain
7:53 AM39.9 °F37.9 °F93 %29.12 in7.0 miNNE (20°)18.4 mph29.9 mph0.05 inRainLight Rain
8:53 AM39.9 °F39.0 °F97 %29.11 in6.0 miNorth (10°)23.0 mph28.8 mph0.01 inRainLight Rain
9:53 AM41.0 °F37.9 °F89 %29.12 in10.0 miNorth (10°)18.4 mph29.9 mph0.02 inRainLight Rain
10:53 AM39.9 °F37.9 °F93 %29.12 in10.0 miNorth (10°)17.3 mph31.1 mph0.00 inOvercast
11:53 AM39.9 °F37.9 °F93 %29.11 in7.0 miNNE (20°)21.9 mph28.8 mph0.00 inRainLight Rain
12:53 PM39.9 °F37.9 °F93 %29.10 in3.0 miNorth (10°)12.7 mph24.2 mph0.07 inRainLight Rain
1:53 PM39.9 °F37.0 °F89 %29.09 in5.0 miNNE (30°)15.0 mph23.0 mph0.07 inRainRain
2:53 PM39.9 °F37.9 °F93 %29.08 in5.0 miNorth (10°)21.9 mph28.8 mph0.05 inOvercast
3:24 PM39.2 °F37.4 °F93 %29.07 in2.0 miNorth (10°)12.7 mph23.0 mph0.01 inRainLight Rain
3:37 PM39.2 °F37.4 °F93 %29.06 in6.0 miNorth (10°)12.7 mph18.4 mph0.02 inRainLight Rain
3:53 PM39.9 °F37.9 °F93 %29.06 in4.0 miNorth (10°)12.7 mph18.4 mph0.02 inRainLight Rain
4:53 PM39.9 °F37.9 °F93 %29.07 in4.0 miNNE (20°)20.7 mph27.6 mph0.03 inRainLight Rain
5:29 PM39.2 °F37.4 °F93 %29.07 in2.0 miNNE (20°)17.3 mph28.8 mph0.01 inRainLight Rain
5:39 PM39.2 °F37.4 °F93 %29.07 in3.0 miNNE (30°)20.7 mph29.9 mph0.01 inRainLight Rain
5:53 PM39.0 °F36.0 °F89 %29.08 in3.0 miNNE (20°)20.7 mph27.6 mph0.01 inRainLight Rain
6:25 PM39.2 °F37.4 °F93 %29.08 in3.0 miNNE (30°)17.3 mph24.2 mph0.02 inRainLight Rain
6:53 PM39.0 °F37.0 °F93 %29.08 in6.0 miNNE (20°)19.6 mph26.5 mph0.04 inRainLight Rain
7:10 PM39.2 °F35.6 °F87 %29.08 in6.0 miNNE (20°)17.3 mph26.5 mph0.02 inRainLight Rain
7:32 PM39.2 °F37.4 °F93 %29.07 in4.0 miNorth (10°)13.8 mph24.2 mph0.04 inRainLight Rain
7:53 PM39.0 °F37.0 °F93 %29.08 in4.0 miNNE (30°)24.2 mph31.1 mph0.06 inRainLight Rain
8:08 PM39.2 °F35.6 °F87 %29.08 in4.0 miNNE (20°)16.1 mph0.01 inRainLight Rain
8:53 PM39.0 °F37.9 °F96 %29.09 in3.0 miNNE (30°)19.6 mph0.04 inRainLight Rain
9:45 PM39.2 °F37.4 °F93 %29.11 in3.0 miNNE (30°)18.4 mph0.05 inRainLight Rain
9:53 PM39.0 °F37.0 °F93 %29.12 in3.0 miNNE (20°)15.0 mph0.06 inRainLight Rain
10:45 PM39.2 °F37.4 °F93 %29.13 in6.0 miNE (40°)13.8 mph0.02 inRainLight Rain
10:53 PM39.0 °F39.0 °F100 %29.14 in3.0 miNE (50°)12.7 mph0.02 inRainLight Rain
11:01 PM39.2 °F39.2 °F100 %29.14 in1.0 miENE (60°)15.0 mph0.01 inRainLight Rain
11:49 PM39.2 °F37.4 °F93 %29.16 in5.0 miENE (60°)15.0 mph0.02 inRainLight Rain
11:53 PM39.0 °F37.9 °F96 %29.17 in5.0 miENE (60°)15.0 mph0.02 inRainLight Rain
Hourly data recorded from PADQ, located miles away from Ouzinkie - Airport, Alaska







STORIES FROM OUR PARTNERS